Location: ?ern� Novina
(50.6762°N, 14.8696°E)
Time: 12:43:58
(UTC+00:00)

Cosmos 2278 Rocket - Pass Details

Date: 03 March 2021
Orbit: 841 x 845 km, 71.0° (Epoch: 16 April)

Event Time Altitude Azimuth Distance (km) Brightness Sun altitude
Rises 18:39:22 0° 332° (NNW) 3,417 6.0 -18.7°
Reaches altitude 10° 18:41:58 10° 339° (NNW) 2,478 5.1 -19.1°
Maximum altitude 18:47:21 42° 50° (NE) 1,185 2.7 -20.0°
Enters shadow 18:48:40 37° 84° (E) 1,298 2.7 -20.2°
